CW6641 Weather Reports


Display with metric or nautical units.
time (UTC)temp
F
wind
direction
speed
MPH
gust
MPH
rain 1hr
in
rain 24hr
in
rain mn
in
humidity
%
barometer
mb
20260505173027 61 0.0 0.0 0.02 0.19 0.19 88 1009.2
20260505172525 62 0.0 0.0 0.02 0.19 0.19 88 1009.0
20260505172021 61 0.0 0.0 0.05 0.19 0.19 88 1008.7
20260505171516 61 0.0 0.0 0.05 0.18 0.18 87 1008.5
20260505171014 61 0.0 0.0 0.05 0.18 0.18 87 1008.6
20260505170510 61 0.0 0.0 0.02 0.18 0.18 87 1008.9
20260505170007 61 0.0 0.0 0.02 0.17 0.17 87 1009.0
20260505165502 61 0.0 0.0 0.05 0.17 0.17 87 1008.7
20260505164958 61 0.0 0.0 0.05 0.17 0.17 87 1009.0
20260505164454 61 0.0 0.0 0.05 0.17 0.17 87 1009.2
20260505163952 60 0.0 0.0 0.05 0.16 0.16 87 1009.3
20260505163451 60 0.0 0.0 0.02 0.16 0.16 87 1009.4
20260505162950 60 0.0 0.0 0.02 0.15 0.15 87 1009.6
20260505162445 60 0.0 0.0 0.02 0.15 0.15 87 1009.5
20260505161942 60 0.0 0.0 0.05 0.15 0.15 87 1009.7
20260505161438 60 0.0 0.0 0.07 0.15 0.15 86 1009.7
20260505160936 60 0.0 0.0 0.12 0.14 0.14 86 1009.8
20260505160434 60 0.0 0.0 0.12 0.13 0.13 85 1009.9
20260505152910 63 0.0 0.0 0.07 0.02 0.02 75 1009.4
20260505152408 64 0.0 0.0 0.05 0.02 0.02 74 1009.8
20260505151907 64 0.0 0.0 0.05 0.01 0.01 71 1009.8
20260505151404 65 0.0 0.0 0.05 0.01 0.01 69 1009.7
20260505150901 65 0.0 0.0 0.00 0.00 0.00 67 1009.6
20260505150359 65 0.0 0.0 0.00 0.00 0.00 67 1009.4
20260505140323 63 0.0 0.0 0.00 0.00 0.00 67 1009.0
20260505130246 63 0.0 0.0 0.00 0.00 0.00 65 1008.6
20260505124737 63 0.0 0.0 0.00 0.00 0.00 67 1008.5
20260505124233 63 0.0 0.0 0.00 0.00 0.00 66 1008.7
20260505123729 63 0.0 0.0 0.00 0.00 0.00 66 1008.4
20260505123226 63 0.0 0.0 0.00 0.00 0.00 67 1008.7
20260505122722 63 0.0 0.0 0.00 0.00 0.00 65 1008.7
20260505122220 63 0.0 0.0 0.00 0.00 0.00 65 1008.8
20260505121716 63 0.0 0.0 0.00 0.00 0.00 64 1009.0
20260505121213 63 0.0 0.0 0.00 0.00 0.00 64 1008.7
20260505120709 63 0.0 0.0 0.00 0.00 0.00 64 1008.7
20260505120205 63 0.0 0.0 0.00 0.00 0.00 63 1008.8
20260505115659 64 0.0 0.0 0.00 0.00 0.00 63 1008.8
20260505115157 64 0.0 0.0 0.00 0.00 0.00 63 1008.6
20260505114654 64 0.0 0.0 0.00 0.00 0.00 64 1008.6
20260505114150 64 0.0 0.0 0.00 0.00 0.00 62 1008.6
20260505113646 64 0.0 0.0 0.00 0.00 0.00 62 1008.7
20260505113143 64 0.0 0.0 0.00 0.00 0.00 62 1008.4
20260505112640 64 0.0 0.0 0.00 0.00 0.00 62 1008.4
20260505112138 65 0.0 0.0 0.00 0.00 0.00 62 1008.5
20260505111637 65 0.0 0.0 0.00 0.00 0.00 63 1008.4
20260505111133 65 0.0 0.0 0.00 0.00 0.00 64 1008.5
20260505110629 65 0.0 0.0 0.00 0.00 0.00 60 1008.3
20260505110127 65 0.0 0.0 0.00 0.00 0.00 60 1008.4
20260505102102 66 0.0 0.0 0.00 0.00 0.00 58 1007.9
20260505101601 66 0.0 0.0 0.00 0.00 0.00 58 1008.0
20260505101057 66 0.0 0.0 0.00 0.00 0.00 58 1008.0
20260505100553 66 0.0 0.0 0.00 0.00 0.00 58 1007.9
20260505100050 66 0.0 0.0 0.00 0.00 0.00 57 1007.9
20260505095547 66 0.0 0.0 0.00 0.00 0.00 57 1008.2
20260505095043 66 0.0 0.0 0.00 0.00 0.00 57 1008.0
20260505094540 66 0.0 0.0 0.00 0.00 0.00 57 1008.3
20260505094036 66 0.0 0.0 0.00 0.00 0.00 57 1008.2
20260505093533 66 0.0 0.0 0.00 0.00 0.00 57 1008.3
20260505093030 66 0.0 0.0 0.00 0.00 0.00 57 1007.7
20260505092527 66 0.0 0.0 0.00 0.00 0.00 57 1008.2
20260505092026 66 0.0 0.0 0.00 0.00 0.00 57 1008.1
20260505091522 66 0.0 0.0 0.00 0.00 0.00 57 1008.0
20260505091020 66 0.0 0.0 0.00 0.00 0.00 57 1008.2
20260505090518 66 0.0 0.0 0.00 0.00 0.00 57 1008.1
20260505090016 66 0.0 0.0 0.00 0.00 0.00 57 1008.0
20260505085513 66 0.0 0.0 0.00 0.00 0.00 57 1007.9
20260505085011 66 0.0 0.0 0.00 0.00 0.00 57 1008.0
20260505084509 66 0.0 0.0 0.00 0.00 0.00 57 1008.2
20260505084007 66 0.0 0.0 0.00 0.00 0.00 57 1007.9
20260505083504 66 0.0 0.0 0.00 0.00 0.00 57 1008.0
20260505083000 66 0.0 0.0 0.00 0.00 0.00 56 1007.9
20260505082456 66 0.0 0.0 0.00 0.00 0.00 56 1007.9
20260505081953 66 0.0 0.0 0.00 0.00 0.00 56 1007.8
20260505081450 66 0.0 0.0 0.00 0.00 0.00 56 1007.6
20260505080946 67 0.0 0.0 0.00 0.00 0.00 56 1007.7
20260505080442 67 0.0 0.0 0.00 0.00 0.00 55 1007.8
20260505075938 67 0.0 0.0 0.00 0.00 0.00 55 1007.8
20260505075435 67 0.0 0.0 0.00 0.00 0.00 55 1007.7
20260505074932 67 0.0 0.0 0.00 0.00 0.00 55 1007.9
20260505074430 67 0.0 0.0 0.00 0.00 0.00 54 1007.9
20260505073927 67 0.0 0.0 0.00 0.00 0.00 55 1008.0
20260505073424 67 0.0 0.0 0.00 0.00 0.00 55 1008.0
20260505072921 67 0.0 0.0 0.00 0.00 0.00 54 1008.1
20260505072418 67 0.0 0.0 0.00 0.00 0.00 54 1008.1
20260505071914 68 0.0 0.0 0.00 0.00 0.00 54 1008.0
20260505071410 68 0.0 0.0 0.00 0.00 0.00 54 1008.0
20260505070908 68 0.0 0.0 0.00 0.00 0.00 54 1008.0
20260505070404 68 0.0 0.0 0.00 0.00 0.00 54 1007.9
20260505065900 68 0.0 0.0 0.00 0.00 0.00 53 1008.0
20260505065357 68 0.0 0.0 0.00 0.00 0.00 53 1007.8
20260505064854 68 0.0 0.0 0.00 0.00 0.00 53 1007.7
20260505064351 68 0.0 0.0 0.00 0.00 0.00 53 1007.9
20260505063849 68 0.0 0.0 0.00 0.00 0.00 53 1007.6
20260505063345 68 0.0 0.0 0.00 0.00 0.00 52 1007.9
20260505062842 68 0.0 0.0 0.00 0.00 0.00 52 1007.3
20260505062339 68 0.0 0.0 0.00 0.00 0.00 52 1007.3
20260505061836 69 0.0 0.0 0.00 0.00 0.00 52 1007.5
20260505061334 69 0.0 0.0 0.00 0.00 0.00 52 1007.5
20260505060831 69 0.0 0.0 0.00 0.00 0.00 52 1007.2
20260505060328 69 0.0 0.0 0.00 0.00 0.00 52 1007.2
20260505055824 69 0.0 0.0 0.00 0.00 0.00 52 1007.6
20260505055320 69 0.0 0.0 0.00 0.00 0.00 52 1007.6
20260505054818 69 0.0 0.0 0.00 0.00 0.00 52 1007.2
20260505054315 69 0.0 0.0 0.00 0.00 0.00 51 1007.1
20260505053813 69 0.0 0.0 0.00 0.00 0.00 51 1007.1
20260505053309 69 0.0 0.0 0.00 0.00 0.00 52 1007.3
20260505052806 69 0.0 0.0 0.00 0.00 0.00 51 1007.3
20260505052304 69 0.0 0.0 0.00 0.00 0.00 51 1007.3
20260505051800 69 0.0 0.0 0.00 0.00 0.00 51 1007.3
20260505051258 69 0.0 0.0 0.00 0.00 0.00 51 1007.3
20260505050755 69 0.0 0.0 0.00 0.00 0.00 51 1007.2
20260505050254 69 0.0 0.0 0.00 0.00 0.00 51 1007.0
20260505041729 70 0.0 0.0 0.00 0.00 0.00 50 1007.2
20260505041226 70 0.0 0.0 0.00 0.00 0.00 50 1007.3
20260505040723 70 0.0 0.0 0.00 0.00 0.00 50 1007.3
20260505040220 70 0.0 0.0 0.00 0.00 0.00 49 1007.2
20260505035717 70 0.0 0.0 0.00 0.00 0.00 49 1007.6
20260505035213 70 0.0 0.0 0.00 0.00 0.00 49 1007.2
20260505034710 70 0.0 0.0 0.00 0.00 0.00 49 1007.5
20260505034207 70 0.0 0.0 0.00 0.00 0.00 49 1007.6
20260505033703 70 0.0 0.0 0.00 0.00 0.00 49 1007.7
20260505033202 70 0.0 0.0 0.00 0.00 0.00 48 1007.3
20260505032659 70 0.0 0.0 0.00 0.00 0.00 48 1007.7
20260505032155 71 0.0 0.0 0.00 0.00 0.00 48 1007.6
20260505031653 71 0.0 0.0 0.00 0.00 0.00 48 1007.6
20260505031149 71 0.0 0.0 0.00 0.00 0.00 47 1007.6
20260505030646 71 0.0 0.0 0.00 0.00 0.00 47 1007.5
20260505030141 71 0.0 0.0 0.00 0.00 0.00 47 1007.8
20260505025638 71 0.0 0.0 0.00 0.00 0.00 47 1007.8
20260505025136 71 0.0 0.0 0.00 0.00 0.00 46 1007.7
20260505024633 72 0.0 0.0 0.00 0.00 0.00 46 1007.5
20260505024130 72 0.0 0.0 0.00 0.00 0.00 46 1007.5
20260505023628 72 0.0 0.0 0.00 0.00 0.00 45 1007.3
20260505023125 72 0.0 0.0 0.00 0.00 0.00 45 1007.2
20260505022623 72 0.0 0.0 0.00 0.00 0.00 45 1007.2
20260505022119 72 0.0 0.0 0.00 0.00 0.00 44 1007.2
20260505021616 73 0.0 0.0 0.00 0.00 0.00 44 1007.1
20260505021113 73 0.0 0.0 0.00 0.00 0.00 44 1007.0
20260505020608 73 0.0 0.0 0.00 0.00 0.00 44 1006.7
20260505020105 73 0.0 0.0 0.00 0.00 0.00 43 1006.7
20260505015602 73 0.0 0.0 0.00 0.00 0.00 43 1006.4
20260505015058 73 0.0 0.0 0.00 0.00 0.00 42 1006.5
20260505014555 73 0.0 0.0 0.00 0.00 0.00 42 1006.4
20260505014052 73 0.0 0.0 0.00 0.00 0.00 42 1006.2
20260505013550 74 0.0 0.0 0.00 0.00 0.00 42 1006.4
20260505013047 74 0.0 0.0 0.00 0.00 0.00 42 1006.1
20260505012545 74 0.0 0.0 0.00 0.00 0.00 41 1006.1
20260505012042 74 0.0 0.0 0.00 0.00 0.00 41 1006.0
20260505011537 74 0.0 0.0 0.00 0.00 0.00 41 1006.1
20260505011035 75 0.0 0.0 0.00 0.00 0.00 41 1005.9
20260505010530 75 0.0 0.0 0.00 0.00 0.00 40 1005.9
20260505010027 75 0.0 0.0 0.00 0.00 0.00 40 1005.8
20260505005523 75 0.0 0.0 0.00 0.00 0.00 40 1005.8
20260505005021 75 0.0 0.0 0.00 0.00 0.00 39 1005.7
20260505004517 76 0.0 0.0 0.00 0.00 0.00 39 1005.7
20260505004014 76 0.0 0.0 0.00 0.00 0.00 38 1005.5
20260505003511 76 0.0 0.0 0.00 0.00 0.00 38 1005.7
20260505003009 76 0.0 0.0 0.00 0.00 0.00 37 1005.8
20260505002503 77 0.0 0.0 0.00 0.00 0.00 37 1005.4
20260505002002 77 0.0 0.0 0.00 0.00 0.00 36 1005.3
20260505001459 77 0.0 0.0 0.00 0.00 0.00 36 1005.4
20260505000956 77 0.0 0.0 0.00 0.00 0.00 36 1005.3
20260505000454 77 0.0 0.0 0.00 0.00 0.00 36 1005.0
20260504235951 77 0.0 0.0 0.00 0.00 0.00 36 1005.2
20260504235448 77 0.0 0.0 0.00 0.00 0.00 37 1005.4
20260504234944 77 0.0 0.0 0.00 0.00 0.00 37 1005.3
20260504234442 77 0.0 0.0 0.00 0.00 0.00 37 1005.5
20260504233938 77 0.0 0.0 0.00 0.00 0.00 36 1005.8
20260504233434 77 0.0 0.0 0.00 0.00 0.00 35 1006.0
20260504232931 78 0.0 0.0 0.00 0.00 0.00 35 1005.9
20260504232428 78 0.0 0.0 0.00 0.00 0.00 36 1006.2
20260504231925 78 0.0 0.0 0.00 0.00 0.00 36 1006.4
20260504231421 78 0.0 0.0 0.00 0.00 0.00 36 1006.6
20260504230918 77 0.0 0.0 0.00 0.00 0.00 37 1006.7
20260504230415 77 0.0 0.0 0.00 0.00 0.00 37 1006.8
20260504225914 77 0.0 0.0 0.00 0.00 0.00 37 1007.0
20260504225410 77 0.0 0.0 0.00 0.00 0.00 37 1007.1
20260504224908 77 0.0 0.0 0.00 0.00 0.00 36 1007.0
20260504224404 77 0.0 0.0 0.00 0.00 0.00 36 1007.2
20260504223901 77 0.0 0.0 0.00 0.00 0.00 37 1007.3
20260504223356 78 0.0 0.0 0.00 0.00 0.00 36 1007.7
20260504222853 77 0.0 0.0 0.00 0.00 0.00 36 1007.9
20260504222350 78 0.0 0.0 0.00 0.00 0.00 37 1007.9
20260504221848 78 0.0 0.0 0.00 0.00 0.00 37 1008.1
20260504221345 78 0.0 0.0 0.00 0.00 0.00 37 1008.0
20260504220842 78 0.0 0.0 0.00 0.00 0.00 37 1008.1
20260504220338 78 0.0 0.0 0.00 0.00 0.00 36 1008.0
20260504215836 78 0.0 0.0 0.00 0.00 0.00 36 1008.3
20260504215332 78 0.0 0.0 0.00 0.00 0.00 35 1008.1
20260504214828 78 0.0 0.0 0.00 0.00 0.00 36 1008.1
20260504214325 78 0.0 0.0 0.00 0.00 0.00 36 1008.3
20260504213822 79 0.0 0.0 0.00 0.00 0.00 36 1008.1
20260504213318 79 0.0 0.0 0.00 0.00 0.00 37 1008.0
20260504212815 79 0.0 0.0 0.00 0.00 0.00 35 1008.0
20260504212311 79 0.0 0.0 0.00 0.00 0.00 35 1008.1
20260504211809 79 0.0 0.0 0.00 0.00 0.00 36 1008.1
20260504211305 79 0.0 0.0 0.00 0.00 0.00 36 1008.1
20260504210803 79 0.0 0.0 0.00 0.00 0.00 37 1008.0
20260504210300 79 0.0 0.0 0.00 0.00 0.00 35 1008.0
20260504205757 79 0.0 0.0 0.00 0.00 0.00 36 1008.3
20260504205254 79 0.0 0.0 0.00 0.00 0.00 37 1007.8
20260504204752 80 0.0 0.0 0.00 0.00 0.00 37 1007.9
20260504204250 80 0.0 0.0 0.00 0.00 0.00 38 1007.9
20260504203749 80 0.0 0.0 0.00 0.00 0.00 37 1007.9
20260504203246 79 0.0 0.0 0.00 0.00 0.00 38 1008.0
20260504202741 79 0.0 0.0 0.00 0.00 0.00 38 1008.1
20260504202239 79 0.0 0.0 0.00 0.00 0.00 37 1008.0
20260504201735 79 0.0 0.0 0.00 0.00 0.00 38 1008.2
20260504201233 79 0.0 0.0 0.00 0.00 0.00 36 1008.3
20260504200731 79 0.0 0.0 0.00 0.00 0.00 36 1008.3
20260504200226 79 0.0 0.0 0.00 0.00 0.00 37 1008.0
20260504195723 79 0.0 0.0 0.00 0.00 0.00 36 1008.2
20260504195219 79 0.0 0.0 0.00 0.00 0.00 37 1008.0
20260504194716 79 0.0 0.0 0.00 0.00 0.00 37 1008.0
20260504194212 79 0.0 0.0 0.00 0.00 0.00 37 1008.0
20260504193708 78 0.0 0.0 0.00 0.00 0.00 37 1008.2
20260504193206 78 0.0 0.0 0.00 0.00 0.00 40 1008.2
20260504192704 78 0.0 0.0 0.00 0.00 0.00 40 1008.1
20260504192202 78 0.0 0.0 0.00 0.00 0.00 40 1008.4
20260504191701 78 0.0 0.0 0.00 0.00 0.00 42 1008.5
20260504191156 78 0.0 0.0 0.00 0.00 0.00 40 1008.4
20260504190652 78 0.0 0.0 0.00 0.00 0.00 41 1008.4
20260504190149 78 0.0 0.0 0.00 0.00 0.00 41 1008.4
20260504185645 78 0.0 0.0 0.00 0.00 0.00 41 1008.6
20260504185142 78 0.0 0.0 0.00 0.00 0.00 41 1008.6
20260504184638 78 0.0 0.0 0.00 0.00 0.00 41 1008.5
20260504184133 78 0.0 0.0 0.00 0.00 0.00 39 1008.7
20260504183630 78 0.0 0.0 0.00 0.00 0.00 39 1008.8
20260504183128 79 0.0 0.0 0.00 0.00 0.00 39 1008.9
20260504182625 79 0.0 0.0 0.00 0.00 0.00 41 1008.8
20260504182123 78 0.0 0.0 0.00 0.00 0.00 42 1009.2
20260504181620 78 0.0 0.0 0.00 0.00 0.00 41 1009.2
20260504181117 78 0.0 0.0 0.00 0.00 0.00 43 1009.0
20260504180617 78 0.0 0.0 0.00 0.00 0.00 41 1009.0
20260504180115 78 0.0 0.0 0.00 0.00 0.00 42 1009.1
20260504175612 78 0.0 0.0 0.00 0.00 0.00 42 1009.1
20260504175108 78 0.0 0.0 0.00 0.00 0.00 43 1009.3
20260504174607 77 0.0 0.0 0.00 0.00 0.00 43 1009.4
20260504174103 77 0.0 0.0 0.00 0.00 0.00 42 1009.2
20260504173600 77 0.0 0.0 0.00 0.00 0.00 45 1009.4